星链-2702 (STARLINK-2702 )

导读

STARLINK-2702是美国SpaceX公司星链(Starlink)项目的一颗低轨互联网通信卫星,于2021年5月9日发射入轨。它运行在约550公里的近地轨道,属于SpaceX打造的全球卫星互联网星座的组成部分,采用Ku/Ka频段提供信号传输,旨在为全球偏远、网络基础设施薄弱地区提供高速互联网接入服务,助力实现全球无缝网络覆盖。

基本信息
目录编号:
48441
目录名称:
STARLINK-2702
国际标识:
2021-040P
轨道中心:
EARTH
卫星名称:
星链-2702
卫星全名:
星链-2702 (STARLINK-2702 )
卫星状态:
在轨 (已飞行1944 天)
发射日期:
2021-05-09 UTC
国别 :
美国 (US)
星等 :
--
轨道信息
数据来源 国际轨道数据 AOE轨道数据
星历时间 2026-09-04T08:35:41+0800
9小时前
查看轨道信息
2026-09-02T11:00:00+0800
2天前
查看轨道信息
半长轴 6848.81km 6848.934km
偏心率 0.000136 0.0001337
轨道倾角 53.160° 53.157°
近地点辐角 62.149° 80.875°
升交点赤经 68.304° 77.144°
平近点角 297.965° 237.725°
近地点 469.741km 469.881km
远地点 471.605km 471.713km
周期 94.012分钟 94.014分钟
每日圈数 15.317228 15.316811
详细信息
固有亮度:
5
最大亮度:
2.5
卫星平台:
Starlink V1.0
覆盖范围:
全球
运营商:
太空探索技术公司
运营商所在国:
美国
制造商(研发单位):
太空探索技术公司
制造商所在国:
美国
使用方式:
暂无
卫星简介
星链(Starlink)计划是由太空探索技术公司(SpaceX)提出的一个巨型低轨卫星互联网星座项目,计划在2019年至2024年间在太空搭建由约1.2万颗卫星组成的“星链”网络,其中1584颗将部署在地球上空550千米处的近地轨道,并从2020年开始工作。该卫星仍在工作。
2D轨道图
3D轨道图
轨道高度分析图
轨道倾角分析图
轨道综合分析图
查看轨道综合分析图
交会数据列表
事件ID 空间交会对象 最接近时刻(TCA) 交会距离 交会风险概率(CRP) 交会风险指数(CRI) 操作
CDM_260906-025104-844106-143421
2026-09-06T
02:51:07+0000
1.698 km
极远距离
4.409695E-6 低风险 0.48
CDM_260904-073704-844105-634422
2026-09-04T
07:37:02+0000
2.910 km
极远距离
1.388323E-6 低风险 0.38